[[{"header":{"parameterUnit":"m.s-1","parameterCategory":1,"la1":30.2991,"la2":30.254,"lo1":-89.0895,"lo2":-89.0444,"dy":0.0017,"dx":0.0017,"nx":28,"ny":28,"refTime":"2024-02-08T03:00:00:Z","depth":0,"parameterNumber":2,"parameterNumberName":"U-component_of_WINDS"},"data":[0,0,0,0,0,0,0,0,0,0,0,0,0,0,0,0,0,0,0,0,0,0,0,0,0,0,0,0,0,0,0,0,0,0,0,0,0,0,0,0,0,0,0,0,0,0,0,0,0,0,0,0,0,0,0,0,0,0,-5.0881,-5.0883,0,-5.0995,-5.0996,-5.0997,-5.0925,-5.0922,-5.0919,-5.0916,-5.1029,-5.1035,-5.1041,0,0,0,0,0,0,0,0,0,0,0,0,0,-5.0602,-5.0607,-5.0881,-5.0883,-5.0884,-5.0994,-5.0996,-5.0997,-5.0926,-5.0922,-5.0918,-5.0914,-5.1027,-5.1034,-5.1042,0,0,0,0,0,0,0,0,0,0,0,0,0,-5.072,-5.0609,-5.0881,-5.0862,-5.0861,-5.0994,-5.0996,-5.0998,-5.0927,-5.0922,-5.0917,-5.0912,-5.1025,-5.1033,-5.1043,-5.12,0,0,-5.1071,-5.1075,0,0,0,0,0,0,0,0,-5.0713,-5.073,-5.0863,-5.0863,-5.0863,-5.0941,-5.0939,-5.1065,-5.0928,-5.0902,-5.0916,-5.091,-5.1004,-5.1014,-5.1046,-5.1205,-5.121,-5.1071,-5.1077,-5.1081,-5.1084,0,0,0,0,0,0,0,-5.0705,-5.0725,-5.0926,-5.0865,-5.0865,-5.0847,-5.0858,-5.0962,-5.0979,-5.0904,-5.0899,-5.0913,-5.1002,-5.1038,-5.1048,-5.1211,-5.1071,-5.1079,-5.1085,-5.1089,-5.1504,-5.151,0,0,0,0,0,0,-5.0699,-5.0718,-5.0922,-5.0929,-5.0774,-5.0856,-5.0869,-5.0921,-5.0978,-5.0982,-5.0918,-5.091,-5.1024,-5.1038,-5.1052,-5.1239,-5.1081,-5.109,-5.1095,-5.1499,-5.1505,-5.1511,0,0,0,0,0,0,-5.0693,-5.0718,-5.0918,-5.0823,-5.0847,-5.0866,-5.0925,-5.0926,-5.0961,-5.0989,-5.0991,-5.0951,-5.1021,-5.1039,-5.1164,-5.1242,-5.1094,-5.1102,-5.1492,-5.1501,-5.1508,-5.1615,0,0,0,0,0,0,-5.0685,-5.0716,-5.0776,-5.0825,-5.0852,-5.1028,-5.093,-5.0932,-5.0977,-5.0968,-5.102,-5.1024,-5.1018,-5.115,-5.1173,-5.1252,-5.1109,-5.1485,-5.1496,-5.1506,-5.1604,-5.1626,-5.1644,0,0,0,0,0,-5.0676,-5.0801,-5.078,-5.0805,-5.0928,-5.1033,-5.1049,-5.1041,-5.0984,-5.1044,-5.1062,-5.1022,-5.123,-5.1164,-5.1188,-5.1272,-5.148,-5.1493,-5.1505,-5.1595,-5.1622,-5.1644,0,0,0,0,0,0,-5.076,-5.0807,-5.0784,-5.0929,-5.0978,-5.1021,-5.1096,-5.1069,-5.1134,-5.1122,-5.1109,-5.1121,-5.1251,-5.1274,-5.1199,-5.1426,-5.1346,-5.1364,-5.1406,-5.1431,-5.1451,-5.1442,-5.1117,0,0,0,0,0,-5.0796,-5.0878,-5.0914,-5.1039,-5.1065,-5.1077,-5.1122,-5.1112,-5.1162,-5.1181,-5.1208,-5.1257,-5.1334,-5.1384,-5.1456,-5.1608,-5.1618,-5.1677,-5.1697,-5.1713,-5.1728,-5.181,-5.1837,-5.1552,-5.1552,-5.1552,0,0,-5.087,-5.0906,-5.0959,-5.1057,-5.1093,-5.1178,-5.1095,-5.1187,-5.125,-5.1195,-5.1314,-5.1336,-5.139,-5.1529,-5.1591,-5.1552,-5.181,-5.1729,-5.1742,-5.1748,-5.1825,-5.1852,-5.1876,-5.1561,-5.1559,-5.1558,0,0,-5.1049,-5.1085,-5.1192,-5.1231,-5.1288,-5.1295,-5.1321,-5.1369,-5.1382,-5.1501,-5.1462,-5.1536,-5.1668,-5.1708,-5.1745,-5.194,-5.1905,-5.1964,-5.2067,-5.2146,-5.2169,-5.2189,-5.2257,-5.2282,-5.1979,-5.198,-5.198,0,-5.1133,-5.126,-5.1251,-5.1347,-5.1391,-5.1347,-5.1456,-5.1493,-5.1571,-5.1602,-5.1557,-5.1722,-5.1755,-5.1902,-5.195,-5.1982,-5.2011,-5.1957,-5.2167,-5.2186,-5.2205,-5.2269,-5.2295,-5.1986,-5.1986,-5.1985,-5.1984,0,-5.1361,-5.1449,-5.1529,-5.1606,-5.1659,-5.1761,-5.1767,-5.1822,-5.1808,-5.182,-5.1942,-5.198,-5.2059,-5.2094,-5.208,-5.2239,-5.2213,-5.2168,-5.2087,-5.2238,-5.2299,-5.2324,-5.1996,-5.1993,-5.1992,-5.199,0,0,-5.1594,-5.1665,-5.1694,-5.1729,-5.1789,-5.1857,-5.1957,-5.2035,-5.2081,-5.2137,-5.2219,-5.2333,-5.2292,-5.2334,-5.2325,-5.2396,-5.2546,-5.2342,-5.2343,-5.2377,-5.2723,-5.2755,-5.2784,-5.2525,-5.2529,-5.2533,-5.2718,0,-5.1774,-5.1949,-5.1945,-5.2107,-5.2188,-5.2148,-5.2235,-5.2281,-5.2296,-5.2366,-5.2381,-5.2462,-5.2402,-5.2427,-5.2495,-5.2514,-5.2615,-5.25,-5.26,-5.2604,-5.2586,-5.2816,-5.2851,-5.3023,-5.2742,-5.2746,-5.2749,0,-5.2008,-5.2072,-5.2243,-5.2291,-5.2325,-5.2403,-5.2474,-5.2543,-5.2594,-5.26,-5.2649,-5.2628,-5.2729,-5.2647,-5.2785,-5.2707,-5.2747,-5.2763,-5.2769,-5.2776,-5.2684,-5.2828,-5.3078,-5.3103,-5.2786,-5.2783,-5.278,0,-5.2159,-5.2288,-5.2407,-5.2437,-5.2497,-5.2553,-5.2581,-5.2627,-5.2675,-5.2737,-5.2767,-5.284,-5.288,-5.2937,-5.2937,-5.2877,-5.3076,-5.2994,-5.3082,-5.3082,-5.3124,-5.3121,-5.3382,-5.3153,-5.3153,-5.3152,-5.3152,0,-5.236,-5.2466,-5.2475,-5.2548,-5.2665,-5.2659,-5.2775,-5.2797,-5.2839,-5.2915,-5.2886,-5.2957,-5.2954,-5.3026,-5.3027,-5.314,-5.3159,-5.3165,-5.3164,-5.3167,-5.3166,-5.3192,-5.3179,-5.3159,-5.3158,-5.3156,-5.3155,0,-5.2548,-5.2559,-5.2685,-5.2732,-5.2746,-5.2831,-5.287,-5.2939,-5.2952,-5.3048,-5.307,-5.309,-5.3174,-5.318,-5.3277,-5.3277,-5.3414,-5.3401,-5.3397,-5.3394,-5.3481,-5.3473,-5.3767,-5.3804,-5.3553,-5.3556,-5.3558,0,-5.2674,-5.2755,-5.2811,-5.286,-5.2891,-5.2971,-5.3019,-5.3017,-5.3068,-5.3133,-5.3194,-5.3276,-5.334,-5.3476,-5.3498,-5.3572,-5.3559,-5.3657,-5.357,-5.357,-5.3559,-5.3553,-5.3561,-5.3673,-5.3676,-5.3678,-5.368,0,-5.2898,-5.2899,-5.2971,-5.3045,-5.3104,-5.3161,-5.3215,-5.3257,-5.3261,-5.332,-5.3406,-5.3457,-5.3557,-5.3637,-5.371,-5.3737,-5.371,-5.3708,-5.3732,-5.3735,-5.3729,-5.3732,-5.3442,-5.3701,-5.3699,-5.3697,-5.3696,-5.3695,-5.3057,-5.3127,-5.3178,-5.3258,-5.3299,-5.335,-5.3417,-5.3439,-5.3511,-5.3592,-5.3586,-5.3681,-5.3731,-5.3826,-5.3859,-5.3933,-5.3899,-5.3934,-5.3943,-5.3951,-5.396,-5.3719,-5.3946,-5.3945,-5.3945,-5.3944,-5.3944,0,-5.3278,-5.3309,-5.3383,-5.346,-5.3524,-5.3494,-5.3552,-5.3607,-5.3691,-5.374,-5.3805,-5.3904,-5.3983,-5.4012,-5.4088,-5.4141,-5.413,-5.4161,-5.4156,-5.4163,-5.3986,-5.3957,-5.4169,-5.4169,-5.4169,-5.4169,-5.4169,-5.4168,-5.34,-5.3516,-5.3524,-5.366,-5.3689,-5.3783,-5.3819,-5.3866,-5.3905,-5.4017,-5.4083,-5.4101,-5.4142,-5.4222,-5.4292,-5.4299,-5.4327,-5.4363,-5.4364,-5.4198,-5.4175,-5.4154,-5.4126,-5.437,-5.4371,-5.4535,-5.4536,-5.4538]},{"header":{"parameterUnit":"m.s-1","parameterCategory":1,"la1":30.2991,"la2":30.254,"lo1":-89.0895,"lo2":-89.0444,"dy":0.0017,"dx":0.0017,"nx":28,"ny":28,"refTime":"2024-02-08T03:00:00:Z","depth":0,"parameterNumber":3,"parameterNumberName":"V-component_of_WINDS"},"data":[0,0,0,0,0,0,0,0,0,0,0,0,0,0,0,0,0,0,0,0,0,0,0,0,0,0,0,0,0,0,0,0,0,0,0,0,0,0,0,0,0,0,0,0,0,0,0,0,0,0,0,0,0,0,0,0,0,0,0.4707,0.4708,0,0.4711,0.4711,0.4711,0.472,0.472,0.4721,0.4721,0.4721,0.472,0.472,0,0,0,0,0,0,0,0,0,0,0,0,0,0.4708,0.4708,0.4707,0.4708,0.4708,0.4711,0.4711,0.4711,0.472,0.472,0.4721,0.4721,0.4721,0.4721,0.472,0,0,0,0,0,0,0,0,0,0,0,0,0,0.4709,0.4708,0.4707,0.4713,0.4713,0.4711,0.4711,0.4711,0.472,0.472,0.4721,0.4721,0.4721,0.4721,0.472,0.4712,0,0,0.4719,0.4719,0,0,0,0,0,0,0,0,0.4709,0.4709,0.4712,0.4712,0.4713,0.4716,0.4711,0.4711,0.472,0.4717,0.4721,0.4721,0.4718,0.4718,0.4718,0.4712,0.4712,0.4719,0.4719,0.4719,0.4719,0,0,0,0,0,0,0,0.4709,0.4709,0.4709,0.4712,0.4712,0.4714,0.4715,0.4711,0.4716,0.4718,0.4718,0.4719,0.4719,0.4719,0.4718,0.4712,0.4719,0.4719,0.4719,0.4719,0.4703,0.4702,0,0,0,0,0,0,0.4708,0.4709,0.4709,0.4709,0.4712,0.4714,0.4715,0.4714,0.4716,0.4717,0.4719,0.4719,0.4719,0.4719,0.4718,0.4711,0.4719,0.4719,0.4719,0.4703,0.4703,0.4702,0,0,0,0,0,0,0.4708,0.4708,0.4708,0.4709,0.4709,0.4714,0.4713,0.4714,0.4714,0.4717,0.4718,0.4717,0.4719,0.4719,0.4715,0.4711,0.4719,0.4718,0.4703,0.4703,0.4702,0.4695,0,0,0,0,0,0,0.4708,0.4708,0.4705,0.4709,0.4709,0.4705,0.4713,0.4714,0.4714,0.4715,0.4716,0.4716,0.4719,0.4715,0.4714,0.4711,0.4718,0.4704,0.4703,0.4703,0.4695,0.4694,0.4693,0,0,0,0,0,0.4708,0.4701,0.4705,0.4705,0.4706,0.4705,0.4705,0.4709,0.4713,0.4711,0.4713,0.4716,0.4712,0.4714,0.4714,0.471,0.4704,0.4703,0.4703,0.4696,0.4694,0.4693,0,0,0,0,0,0,0.4695,0.4702,0.4706,0.47,0.4702,0.4706,0.4703,0.4707,0.4707,0.4708,0.4712,0.4712,0.4708,0.4708,0.4712,0.4704,0.4708,0.4708,0.4704,0.4702,0.4701,0.4701,0.4718,0,0,0,0,0,0.4692,0.4691,0.4697,0.4691,0.4692,0.4698,0.4697,0.4701,0.4702,0.4703,0.4705,0.4705,0.4704,0.4703,0.4702,0.4696,0.4697,0.4693,0.4692,0.4691,0.469,0.4689,0.4688,0.47,0.47,0.4701,0,0,0.4684,0.4688,0.4687,0.4689,0.4691,0.469,0.4698,0.4696,0.4696,0.4702,0.4699,0.4701,0.4702,0.4697,0.4695,0.4698,0.4687,0.469,0.469,0.4689,0.4688,0.4687,0.4686,0.47,0.47,0.47,0,0,0.4671,0.4673,0.467,0.4673,0.4676,0.468,0.468,0.4684,0.4686,0.4684,0.4689,0.4689,0.4686,0.4687,0.4688,0.4679,0.4682,0.4678,0.4672,0.4671,0.467,0.4669,0.4667,0.4666,0.4677,0.4677,0.4677,0,0.466,0.466,0.4667,0.4666,0.4668,0.4676,0.4673,0.4675,0.4677,0.4678,0.4681,0.468,0.4681,0.4679,0.4677,0.4676,0.4676,0.4677,0.467,0.4669,0.4668,0.4666,0.4665,0.4677,0.4677,0.4677,0.4677,0,0.4649,0.4649,0.4646,0.4651,0.4651,0.4649,0.4656,0.4656,0.4661,0.4665,0.4663,0.4665,0.4666,0.4666,0.4669,0.4664,0.4665,0.4669,0.4674,0.4666,0.4665,0.4664,0.4676,0.4676,0.4676,0.4676,0,0,0.4625,0.4636,0.4635,0.4638,0.4644,0.4644,0.4643,0.4646,0.4647,0.4649,0.4649,0.4648,0.4653,0.4653,0.4657,0.4656,0.465,0.466,0.466,0.4659,0.4647,0.4644,0.4643,0.4653,0.4653,0.4653,0.4647,0,0.4613,0.4613,0.4621,0.4618,0.4619,0.4629,0.4628,0.4632,0.4636,0.4637,0.4642,0.4642,0.4647,0.4648,0.4647,0.4651,0.4648,0.4651,0.4653,0.4653,0.4653,0.4642,0.4639,0.4634,0.4646,0.4646,0.4646,0,0.4599,0.4603,0.4601,0.461,0.4611,0.461,0.4615,0.4616,0.4621,0.4624,0.4627,0.4632,0.4632,0.4637,0.4638,0.464,0.4641,0.4644,0.4643,0.4644,0.4649,0.4643,0.4632,0.4631,0.4645,0.4645,0.4645,0,0.4583,0.4588,0.4589,0.4591,0.4601,0.4601,0.4605,0.461,0.4612,0.4616,0.4618,0.4621,0.4622,0.4624,0.4631,0.4634,0.4631,0.4636,0.4634,0.4634,0.4633,0.4633,0.4622,0.4633,0.4633,0.4633,0.4633,0,0.457,0.4568,0.4582,0.4582,0.4582,0.4591,0.459,0.4595,0.4601,0.4602,0.461,0.4611,0.4619,0.4621,0.4626,0.4627,0.4627,0.463,0.4631,0.4629,0.4629,0.463,0.4631,0.4633,0.4633,0.4633,0.4633,0,0.4552,0.4561,0.4562,0.4573,0.4575,0.4575,0.4584,0.4584,0.459,0.4592,0.4593,0.4602,0.4605,0.4612,0.4616,0.462,0.462,0.4622,0.4618,0.4619,0.4617,0.4618,0.4607,0.4607,0.4617,0.4617,0.4617,0,0.4543,0.4542,0.4554,0.4556,0.4561,0.4564,0.4567,0.4577,0.4579,0.4587,0.4587,0.4592,0.4595,0.46,0.4607,0.4611,0.4613,0.4609,0.4614,0.4613,0.4614,0.4614,0.4615,0.4608,0.4608,0.4608,0.4608,0,0.4526,0.4531,0.4536,0.4543,0.4546,0.4552,0.4557,0.4559,0.457,0.4573,0.4577,0.4581,0.4587,0.4591,0.4597,0.4601,0.4606,0.4607,0.4607,0.4605,0.4603,0.4605,0.4616,0.4607,0.4607,0.4607,0.4607,0.4607,0.4513,0.4514,0.4523,0.4529,0.4535,0.4541,0.4543,0.455,0.4554,0.4561,0.4567,0.4571,0.4578,0.4587,0.4591,0.4594,0.4597,0.4596,0.4596,0.4596,0.4596,0.4603,0.4595,0.4595,0.4595,0.4595,0.4595,0,0.4497,0.4504,0.4509,0.4519,0.4523,0.453,0.4538,0.4541,0.4545,0.4552,0.4557,0.4563,0.4569,0.4577,0.4582,0.4584,0.4587,0.4585,0.4585,0.4586,0.4593,0.4593,0.4583,0.4583,0.4583,0.4583,0.4583,0.4583,0.449,0.4493,0.45,0.4507,0.4514,0.4519,0.4523,0.4529,0.4535,0.4542,0.4548,0.4553,0.4561,0.4568,0.4574,0.4576,0.4578,0.4576,0.4579,0.4584,0.4586,0.4587,0.4587,0.4576,0.4576,0.4572,0.4572,0.4572]}]]